Location: Newark
(48.2308°N, 120.8549°W)
Time: 01:14:39
(UTC+00:00)

Transit 2A Rocket - Pass Details

Date: 29 May 2020
Orbit: 584 x 919 km, 66.7° (Epoch: 13 July)

Event Time Altitude Azimuth Distance (km) Brightness Sun altitude
Rises 12:06:08 0° 319° (NW) 3,387 8.3 -1.2°
Reaches altitude 10° 12:09:50 10° 343° (NNW) 2,514 7.9 -0.7°
Maximum altitude 12:12:57 14° 16° (NNE) 2,250 8.3 -0.3°
Drops below altitude 10° 12:16:09 10° 48° (NE) 2,589 9.9 0.2°
Sets 12:20:03 0° 72° (ENE) 3,555 10.4 0.7°
